串田彗星

144P/Kushida (2024)

English version
Home page
Updated on June 11, 2024

---------------------------------------------------------------------

・ プロフィール

・ 写真集

・ 軌道要素

Epoch 2024 Mar. 31.0 TT = JDT 2460400.5
T 2024 Jan. 25.77101 TT                                 Rudenko
q   1.3988578            (2000.0)            P               Q
n   0.13143719     Peri.  216.32175     -0.15945390     -0.98531547
a   3.8311034      Node   242.92551     +0.92113234     -0.12625072
e   0.6348682      Incl.    3.93189     +0.35509108     -0.11495295
P   7.50
>From 2684 observations 2016 July 31-2024 Mar. 15, mean residual 0".5.
     Nongravitational parameters A1 = +0.17, A2 = -0.0879.

・ 星図

・ 光度変化

        m1 = 5.0 + 5 logΔ + 35 log r(t - 30)  [  ,30]  (              〜2024年 2月24日)
        m1 = 6.5 + 5 logΔ + 25 log r(t - 30)  [30,  ]  (2024年 2月24日〜              )

---------------------------------------------------------------------

軌道要素はM.P.E.C. 2024-F34に掲載されたものです。
星図はステラナビゲータ Ver.10 (アストロアーツ) で作成したものです。
光度グラフはComet for Windowsで作成したものです。

---------------------------------------------------------------------

Copyright(C) Seiichi Yoshida (comet@aerith.net). All rights reserved.